Time,TemperatureF,DewpointF,PressureIn,WindDirection,WindDirectionDegrees,WindSpeedMPH,WindSpeedGustMPH,Humidity,HourlyPrecipIn,Conditions,Clouds,dailyrainin,SoftwareType,DateUTC
2013-04-26 00:01:00,49.0,42.0,-100.00,SE,135,2.0,5.0,76,-99.99,,,-99.99,,2013-04-26 07:01:00,
2013-04-26 00:10:00,47.0,42.0,-100.00,SE,145,2.0,6.0,82,-99.99,,,-99.99,,2013-04-26 07:10:00,
2013-04-26 01:02:00,47.0,42.0,-100.00,SE,145,2.0,6.0,82,-99.99,,,-99.99,,2013-04-26 08:02:00,
2013-04-26 01:10:00,46.0,41.0,-100.00,SSE,165,2.0,6.0,82,-99.99,,,-99.99,,2013-04-26 08:10:00,
2013-04-26 02:01:00,46.0,41.0,-100.00,SSE,165,2.0,6.0,82,-99.99,,,-99.99,,2013-04-26 09:01:00,
2013-04-26 02:10:00,44.0,40.0,-100.00,SSE,160,1.0,6.0,85,-99.99,,,-99.99,,2013-04-26 09:10:00,
2013-04-26 03:03:00,44.0,40.0,-100.00,SSE,160,1.0,6.0,85,-99.99,,,-99.99,,2013-04-26 10:03:00,
2013-04-26 06:01:00,40.0,38.0,-100.00,SE,125,2.0,6.0,92,-99.99,,,-99.99,,2013-04-26 13:01:00,
2013-04-26 06:10:00,40.0,38.0,-100.00,SW,225,1.0,6.0,92,-99.99,,,-99.99,,2013-04-26 13:10:00,
2013-04-26 07:01:00,40.0,38.0,-100.00,SW,225,1.0,6.0,92,-99.99,,,-99.99,,2013-04-26 14:01:00,
2013-04-26 07:10:00,46.0,41.0,-100.00,East,100,1.0,5.0,82,-99.99,,,-99.99,,2013-04-26 14:10:00,
2013-04-26 08:01:00,46.0,41.0,-100.00,East,100,1.0,5.0,82,-99.99,,,-99.99,,2013-04-26 15:01:00,
2013-04-26 08:10:00,53.0,42.0,-100.00,SE,135,2.0,6.0,66,-99.99,,,-99.99,,2013-04-26 15:10:00,
2013-04-26 09:03:00,53.0,42.0,-100.00,SE,135,2.0,6.0,66,-99.99,,,-99.99,,2013-04-26 16:03:00,
2013-04-26 09:10:00,60.0,45.0,-100.00,SW,225,1.0,2.0,57,-99.99,,,-99.99,,2013-04-26 16:10:00,
2013-04-26 10:02:00,60.0,45.0,-100.00,SW,225,1.0,2.0,57,-99.99,,,-99.99,,2013-04-26 17:02:00,
2013-04-26 10:10:00,65.0,47.0,-100.00,West,260,1.0,3.0,52,-99.99,,,-99.99,,2013-04-26 17:10:00,
2013-04-26 11:02:00,65.0,47.0,-100.00,West,260,1.0,3.0,52,-99.99,,,-99.99,,2013-04-26 18:02:00,
2013-04-26 11:10:00,68.0,45.0,-100.00,SE,145,9.0,13.0,43,-99.99,,,-99.99,,2013-04-26 18:10:00,
2013-04-26 12:01:00,68.0,45.0,-100.00,SE,145,9.0,13.0,43,-99.99,,,-99.99,,2013-04-26 19:01:00,
2013-04-26 12:10:00,70.0,45.0,-100.00,SSE,165,7.0,16.0,40,-99.99,,,-99.99,,2013-04-26 19:10:00,
2013-04-26 13:02:00,70.0,45.0,-100.00,SSE,165,7.0,16.0,40,-99.99,,,-99.99,,2013-04-26 20:02:00,
2013-04-26 13:10:00,74.0,46.0,-100.00,SSW,195,2.0,13.0,36,-99.99,,,-99.99,,2013-04-26 20:10:00,
2013-04-26 14:01:00,74.0,46.0,-100.00,SSW,195,2.0,13.0,36,-99.99,,,-99.99,,2013-04-26 21:01:00,
2013-04-26 14:10:00,75.0,46.0,-100.00,South,185,9.0,18.0,35,-99.99,,,-99.99,,2013-04-26 21:10:00,
2013-04-26 15:02:00,75.0,46.0,-100.00,South,185,9.0,18.0,35,-99.99,,,-99.99,,2013-04-26 22:02:00,
2013-04-26 15:10:00,74.0,43.0,-100.00,SSW,205,6.0,18.0,32,-99.99,,,-99.99,,2013-04-26 22:10:00,
2013-04-26 16:01:00,74.0,43.0,-100.00,SSW,205,6.0,18.0,32,-99.99,,,-99.99,,2013-04-26 23:01:00,
2013-04-26 16:10:00,75.0,43.0,-100.00,South,180,9.0,15.0,31,-99.99,,,-99.99,,2013-04-26 23:10:00,
2013-04-26 17:01:00,75.0,43.0,-100.00,South,180,9.0,15.0,31,-99.99,,,-99.99,,2013-04-27 00:01:00,
2013-04-26 17:10:00,74.0,42.0,-100.00,South,190,5.0,9.0,31,-99.99,,,-99.99,,2013-04-27 00:10:00,
2013-04-26 18:01:00,74.0,42.0,-100.00,South,190,5.0,9.0,31,-99.99,,,-99.99,,2013-04-27 01:01:00,
2013-04-26 19:01:00,73.0,41.0,-100.00,South,175,2.0,5.0,31,-99.99,,,-99.99,,2013-04-27 02:01:00,
2013-04-26 20:02:00,66.0,40.0,-100.00,SE,145,3.0,6.0,38,-99.99,,,-99.99,,2013-04-27 03:02:00,
2013-04-26 21:02:00,67.0,38.0,-100.00,SSE,160,2.0,9.0,34,-99.99,,,-99.99,,2013-04-27 04:02:00,
2013-04-26 22:02:00,59.0,37.0,-100.00,South,180,5.0,7.0,43,-99.99,,,-99.99,,2013-04-27 05:02:00,
2013-04-26 23:01:00,57.0,41.0,-100.00,SSW,200,2.0,5.0,54,-99.99,,,-99.99,,2013-04-27 06:01:00,